Regional Weather Roundup
Issued by NWS Cleveland, OH

Home | Current Version | Previous Version | Graphics & Text | Print | Product List | Glossary On
Versions: 1 2 3 4 5 6 7 8 9 10 11 12 13 14 15 16 17 18 19 20 21 22 23 24 25 26 27 28 29 30 31 32 33 34 35 36 37 38 39 40 41 42 43 44 45 46 47 48 49 50
000
ASUS41 KCLE 282000
RWRCLE
OHIO REGIONAL WEATHER ROUNDUP
NATIONAL WEATHER SERVICE WILMINGTON, OH
400 PM EDT SUN AUG 28 2016

NOTE: "FAIR" INDICATES FEW OR NO CLOUDS BELOW 12,000 FEET WITH NO
SIGNIFICANT WEATHER AND/OR OBSTRUCTIONS TO VISIBILITY.

OHZ001>008-015>018-024>027-034-035-043-044-282100-
   NORTHWEST OHIO

CITY           SKY/WX    TMP DP  RH WIND       PRES   REMARKS
DEFIANCE       PTSUNNY   80  67  64 N12       30.18F
FINDLAY        FAIR      89  70  53 CALM      30.17F HX  94
TOLEDO EXPRESS LGT RAIN  73  70  90 N3        30.18F
TOLEDO EXEC    FAIR      78  72  81 VRB5      30.20F
LIMA           PTSUNNY   86  75  69 N5        30.18F HX  95
$$

OHZ009>014-019>023-028>033-038-089-282100-
   NORTHEAST OHIO

CITY           SKY/WX    TMP DP  RH WIND       PRES   REMARKS
CLE-HOPKINS    FAIR      88  72  58 N12       30.20S HX  94
CLE-LAKEFRONT  FAIR      84  75  74 NW9       30.17F HX  92
CUY CO. ARPT   MOSUNNY   88  75  66 N14       30.20S HX  97
LORAIN-ELYRIA  CLOUDY    85  74  69 N8        30.18F HX  92
ASHTABULA      FAIR      86  73  65 NW7       30.18F HX  93
AKRON-CANTON   FAIR      90  70  51 NW8       30.18F HX  95
WOOSTER        NOT AVBL
MANSFIELD      FAIR      86  71  60 NW7       30.20F HX  91
YOUNGSTOWN     FAIR      89  69  51 N6        30.18F HX  93
$$

OHZ042-051>053-060>062-070>072-077>081-282100-
  SOUTHWEST OHIO

CITY           SKY/WX    TMP DP  RH WIND       PRES   REMARKS
CINC-COVINGTON FAIR      91  71  51 NW5       30.15F HX  97
CINC-LUNKEN    MOSUNNY   91  73  55 VRB3      30.13F HX 100
HAMILTON       FAIR      91  72  53 CALM      30.14F HX  98
DAYTON         NOT AVBL
WRIGHT-PAT AFB FAIR      89  72  56 W5        30.15F HX  96
DAYTON GENERAL FAIR      89  71  55 S3        30.15F HX  95
WILMINGTON     FAIR      88  72  58 SE3       30.16F HX  94
$$

OHZ036-037-039>041-045>050-054>059-063>069-073>076-082>088-282100-
  CENTRAL AND SOUTHEAST OHIO

CITY           SKY/WX    TMP DP  RH WIND       PRES   REMARKS
COLUMBUS       FAIR      88  69  53 CALM      30.15F HX  92
OSU AIRPORT    FAIR      90  70  51 NW3       30.15F HX  95
BOLTON FIELD   SUNNY     90  72  55 CALM      30.16F HX  96
RICKENBACK AFB NOT AVBL
NEWARK         PTSUNNY   91  71  51 CALM      30.16F HX  97
MARION         PTSUNNY   88  71  57 N7        30.19F HX  94
LANCASTER      FAIR      90  72  55 E6        30.15F HX  97
ZANESVILLE     FAIR      91  70  49 SE3       30.16F HX  96
NEW PHILLY     FAIR      93  68  43 VRB6      30.17F HX  97
$$



USA.gov is the U.S. government's official web portal to all federal, state and local government web resources and services.